Time,TemperatureF,DewpointF,PressureIn,WindDirection,WindDirectionDegrees,WindSpeedMPH,WindSpeedGustMPH,Humidity,HourlyPrecipIn,Conditions,Clouds,dailyrainin,SoftwareType,DateUTC
2013-01-06 00:00:00,41.0,33.7,30.19,East,90,0.0,0.4,75,0.00,,,0.00,WUHU216HW,2013-01-06 06:00:00,
2013-01-06 00:05:00,40.9,33.5,30.19,East,90,0.0,0.4,75,0.00,,,0.00,WUHU216HW,2013-01-06 06:05:00,
2013-01-06 00:10:00,40.9,33.5,30.19,East,90,0.0,0.2,75,0.00,,,0.00,WUHU216HW,2013-01-06 06:10:00,
2013-01-06 00:15:00,40.7,33.3,30.19,East,90,0.2,0.7,75,0.00,,,0.00,WUHU216HW,2013-01-06 06:15:00,
2013-01-06 00:20:00,40.7,33.3,30.19,East,90,0.0,0.7,75,0.00,,,0.00,WUHU216HW,2013-01-06 06:20:00,
2013-01-06 00:25:00,40.7,33.3,30.19,East,90,0.0,0.4,75,0.00,,,0.00,WUHU216HW,2013-01-06 06:25:00,
2013-01-06 00:30:00,40.7,33.7,30.19,East,90,0.0,0.4,76,0.00,,,0.00,WUHU216HW,2013-01-06 06:30:00,
2013-01-06 00:35:00,40.5,33.5,30.19,East,90,0.2,0.4,76,0.00,,,0.00,WUHU216HW,2013-01-06 06:35:00,
2013-01-06 00:40:00,40.5,33.5,30.19,East,90,0.0,0.4,76,0.00,,,0.00,WUHU216HW,2013-01-06 06:40:00,
2013-01-06 00:45:00,40.3,33.3,30.19,East,90,0.0,0.4,76,0.00,,,0.00,WUHU216HW,2013-01-06 06:45:00,
2013-01-06 00:50:00,40.3,33.3,30.19,East,90,0.0,0.2,76,0.00,,,0.00,WUHU216HW,2013-01-06 06:50:00,
2013-01-06 00:55:00,40.3,33.3,30.19,East,90,0.0,0.2,76,0.00,,,0.00,WUHU216HW,2013-01-06 06:55:00,
2013-01-06 01:00:00,40.1,33.1,30.19,East,90,0.0,0.0,76,0.00,,,0.00,WUHU216HW,2013-01-06 07:00:00,
2013-01-06 01:05:00,40.0,32.9,30.19,East,90,0.0,0.0,76,0.00,,,0.00,WUHU216HW,2013-01-06 07:05:00,
2013-01-06 01:10:00,40.0,32.9,30.19,East,90,0.0,0.0,76,0.00,,,0.00,WUHU216HW,2013-01-06 07:10:00,
2013-01-06 01:15:00,39.8,32.8,30.20,East,90,0.0,0.0,76,0.00,,,0.00,WUHU216HW,2013-01-06 07:15:00,
2013-01-06 01:20:00,39.6,32.7,30.19,East,90,0.0,0.0,76,0.00,,,0.00,WUHU216HW,2013-01-06 07:20:00,
2013-01-06 01:25:00,39.4,32.8,30.19,East,90,0.0,0.0,77,0.00,,,0.00,WUHU216HW,2013-01-06 07:25:00,
2013-01-06 01:30:00,39.2,32.7,30.19,East,90,0.0,0.0,77,0.00,,,0.00,WUHU216HW,2013-01-06 07:30:00,
2013-01-06 01:35:00,39.2,32.7,30.19,East,90,0.0,0.0,77,0.00,,,0.00,WUHU216HW,2013-01-06 07:35:00,
2013-01-06 01:40:00,38.9,32.3,30.19,East,90,0.0,0.0,77,0.00,,,0.00,WUHU216HW,2013-01-06 07:40:00,
2013-01-06 01:45:00,38.9,32.3,30.19,East,90,0.0,0.0,77,0.00,,,0.00,WUHU216HW,2013-01-06 07:45:00,
2013-01-06 01:50:00,38.7,32.1,30.19,East,90,0.0,0.0,77,0.00,,,0.00,WUHU216HW,2013-01-06 07:50:00,
2013-01-06 01:55:00,38.5,32.0,30.19,East,90,0.0,0.0,77,0.00,,,0.00,WUHU216HW,2013-01-06 07:55:00,
2013-01-06 02:00:00,38.5,32.0,30.19,East,90,0.0,0.0,77,0.00,,,0.00,WUHU216HW,2013-01-06 08:00:00,
2013-01-06 02:05:00,38.3,31.4,30.20,East,90,0.0,0.0,76,0.00,,,0.00,WUHU216HW,2013-01-06 08:05:00,
2013-01-06 02:10:00,38.3,31.4,30.20,East,90,0.0,0.0,76,0.00,,,0.00,WUHU216HW,2013-01-06 08:10:00,
2013-01-06 02:15:00,38.2,31.2,30.20,East,90,0.0,0.0,76,0.00,,,0.00,WUHU216HW,2013-01-06 08:15:00,
2013-01-06 02:20:00,38.2,31.2,30.20,East,90,0.0,0.0,76,0.00,,,0.00,WUHU216HW,2013-01-06 08:20:00,
2013-01-06 02:25:00,37.8,30.9,30.20,East,90,0.0,0.0,76,0.00,,,0.00,WUHU216HW,2013-01-06 08:25:00,
2013-01-06 02:30:00,37.8,30.9,30.20,East,90,0.0,0.0,76,0.00,,,0.00,WUHU216HW,2013-01-06 08:30:00,
2013-01-06 02:35:00,37.8,30.9,30.20,East,90,0.0,0.0,76,0.00,,,0.00,WUHU216HW,2013-01-06 08:35:00,
2013-01-06 02:40:00,37.6,30.8,30.20,East,90,0.0,0.0,76,0.00,,,0.00,WUHU216HW,2013-01-06 08:40:00,
2013-01-06 02:45:00,37.6,31.1,30.20,East,90,0.0,0.0,77,0.00,,,0.00,WUHU216HW,2013-01-06 08:45:00,
2013-01-06 02:50:00,37.4,30.9,30.20,East,90,0.0,0.0,77,0.00,,,0.00,WUHU216HW,2013-01-06 08:50:00,
2013-01-06 02:55:00,37.4,30.9,30.20,East,90,0.0,0.0,77,0.00,,,0.00,WUHU216HW,2013-01-06 08:55:00,
2013-01-06 03:00:00,37.3,30.7,30.20,East,90,0.0,0.0,77,0.00,,,0.00,WUHU216HW,2013-01-06 09:00:00,
2013-01-06 03:05:00,37.3,30.7,30.20,East,90,0.0,0.0,77,0.00,,,0.00,WUHU216HW,2013-01-06 09:05:00,
2013-01-06 03:10:00,37.3,30.7,30.20,East,90,0.0,0.0,77,0.00,,,0.00,WUHU216HW,2013-01-06 09:10:00,
2013-01-06 03:15:00,37.1,30.5,30.20,East,90,0.0,0.0,77,0.00,,,0.00,WUHU216HW,2013-01-06 09:15:00,
2013-01-06 03:20:00,37.1,30.5,30.20,East,90,0.0,0.2,77,0.00,,,0.00,WUHU216HW,2013-01-06 09:20:00,
2013-01-06 03:25:00,36.9,30.3,30.21,East,90,0.0,0.2,77,0.00,,,0.00,WUHU216HW,2013-01-06 09:25:00,
2013-01-06 03:30:00,36.7,30.2,30.21,East,90,0.0,0.0,77,0.00,,,0.00,WUHU216HW,2013-01-06 09:30:00,
2013-01-06 03:35:00,36.7,30.2,30.21,East,90,0.0,0.2,77,0.00,,,0.00,WUHU216HW,2013-01-06 09:35:00,
2013-01-06 03:40:00,36.7,30.5,30.21,East,90,0.0,0.2,78,0.00,,,0.00,WUHU216HW,2013-01-06 09:40:00,
2013-01-06 03:45:00,36.7,30.5,30.21,East,90,0.0,0.0,78,0.00,,,0.00,WUHU216HW,2013-01-06 09:45:00,
2013-01-06 03:50:00,36.7,30.5,30.21,East,90,0.0,0.0,78,0.00,,,0.00,WUHU216HW,2013-01-06 09:50:00,
2013-01-06 03:54:00,36.5,30.3,30.21,East,90,0.0,0.0,78,0.00,,,0.00,WUHU216HW,2013-01-06 09:54:00,
2013-01-06 03:59:00,36.4,30.2,30.21,East,90,0.0,0.0,78,0.00,,,0.00,WUHU216HW,2013-01-06 09:59:00,
2013-01-06 04:04:00,36.4,30.2,30.21,East,90,0.0,0.0,78,0.00,,,0.00,WUHU216HW,2013-01-06 10:04:00,
2013-01-06 04:09:00,36.5,30.3,30.21,East,90,0.0,0.0,78,0.00,,,0.00,WUHU216HW,2013-01-06 10:09:00,
2013-01-06 04:14:00,36.5,30.3,30.21,East,90,0.0,0.4,78,0.00,,,0.00,WUHU216HW,2013-01-06 10:14:00,
2013-01-06 04:19:00,36.5,30.3,30.21,East,90,0.0,0.4,78,0.00,,,0.00,WUHU216HW,2013-01-06 10:19:00,
2013-01-06 04:24:00,36.5,30.6,30.21,North,0,0.0,1.1,79,0.00,,,0.00,WUHU216HW,2013-01-06 10:24:00,
2013-01-06 04:29:00,36.7,30.8,30.21,WNW,293,0.7,1.8,79,0.00,,,0.00,WUHU216HW,2013-01-06 10:29:00,
2013-01-06 04:34:00,36.9,31.3,30.21,NE,45,0.4,2.2,80,0.00,,,0.00,WUHU216HW,2013-01-06 10:34:00,
2013-01-06 04:39:00,37.1,31.5,30.22,West,270,0.9,2.2,80,0.00,,,0.00,WUHU216HW,2013-01-06 10:39:00,
2013-01-06 04:44:00,37.1,31.5,30.22,WNW,293,1.8,2.2,80,0.00,,,0.00,WUHU216HW,2013-01-06 10:44:00,
2013-01-06 04:49:00,37.3,31.7,30.21,North,0,1.6,2.2,80,0.00,,,0.00,WUHU216HW,2013-01-06 10:49:00,
2013-01-06 04:54:00,37.3,31.7,30.21,NNW,338,0.4,2.2,80,0.00,,,0.00,WUHU216HW,2013-01-06 10:54:00,
2013-01-06 04:59:00,37.4,31.9,30.21,NE,45,0.0,2.2,80,0.00,,,0.00,WUHU216HW,2013-01-06 10:59:00,
2013-01-06 05:04:00,37.4,31.9,30.21,NNE,23,0.4,2.5,80,0.00,,,0.00,WUHU216HW,2013-01-06 11:04:00,
2013-01-06 05:09:00,37.3,31.7,30.22,NE,45,1.6,2.5,80,0.00,,,0.00,WUHU216HW,2013-01-06 11:09:00,
2013-01-06 05:14:00,37.3,31.7,30.22,NE,45,0.2,3.6,80,0.00,,,0.00,WUHU216HW,2013-01-06 11:14:00,
2013-01-06 05:19:00,37.4,31.9,30.22,North,0,1.1,3.6,80,0.00,,,0.00,WUHU216HW,2013-01-06 11:19:00,
2013-01-06 05:24:00,37.4,31.9,30.22,NE,45,1.1,2.5,80,0.00,,,0.00,WUHU216HW,2013-01-06 11:24:00,
2013-01-06 05:29:00,37.4,31.9,30.22,West,270,0.4,2.7,80,0.00,,,0.00,WUHU216HW,2013-01-06 11:29:00,
2013-01-06 05:34:00,37.4,31.9,30.23,NNE,23,1.1,2.7,80,0.00,,,0.00,WUHU216HW,2013-01-06 11:34:00,
2013-01-06 05:39:00,37.4,31.9,30.23,North,0,0.4,2.7,80,0.00,,,0.00,WUHU216HW,2013-01-06 11:39:00,
2013-01-06 05:44:00,37.3,31.7,30.22,NW,315,0.7,2.7,80,0.00,,,0.00,WUHU216HW,2013-01-06 11:44:00,
2013-01-06 05:49:00,37.3,31.7,30.22,North,0,0.0,1.8,80,0.00,,,0.00,WUHU216HW,2013-01-06 11:49:00,
2013-01-06 05:54:00,37.3,31.3,30.23,ENE,68,0.4,1.6,79,0.00,,,0.00,WUHU216HW,2013-01-06 11:54:00,
2013-01-06 05:59:00,37.3,31.3,30.22,NW,315,0.0,2.2,79,0.00,,,0.00,WUHU216HW,2013-01-06 11:59:00,
2013-01-06 06:04:00,37.3,31.3,30.23,NNW,338,0.4,2.2,79,0.00,,,0.00,WUHU216HW,2013-01-06 12:04:00,
2013-01-06 06:09:00,37.3,31.3,30.23,NW,315,0.4,1.8,79,0.00,,,0.00,WUHU216HW,2013-01-06 12:09:00,
2013-01-06 06:14:00,37.3,31.3,30.23,North,0,0.4,2.5,79,0.00,,,0.00,WUHU216HW,2013-01-06 12:14:00,
2013-01-06 06:19:00,37.1,31.1,30.24,NNE,23,1.3,2.7,79,0.00,,,0.00,WUHU216HW,2013-01-06 12:19:00,
2013-01-06 06:24:00,37.1,30.9,30.24,North,0,2.5,2.7,78,0.00,,,0.00,WUHU216HW,2013-01-06 12:24:00,
2013-01-06 06:29:00,37.1,30.9,30.24,NNE,23,1.1,2.5,78,0.00,,,0.00,WUHU216HW,2013-01-06 12:29:00,
2013-01-06 06:34:00,37.1,30.9,30.25,NNE,23,0.7,2.5,78,0.00,,,0.00,WUHU216HW,2013-01-06 12:34:00,
2013-01-06 06:39:00,37.1,30.9,30.25,North,0,1.1,2.5,78,0.00,,,0.00,WUHU216HW,2013-01-06 12:39:00,
2013-01-06 06:44:00,36.9,30.7,30.25,NNE,23,0.4,3.1,78,0.00,,,0.00,WUHU216HW,2013-01-06 12:44:00,
2013-01-06 06:49:00,36.9,30.7,30.25,North,0,0.7,4.3,78,0.00,,,0.00,WUHU216HW,2013-01-06 12:49:00,
2013-01-06 06:54:00,36.9,30.7,30.25,NNE,23,0.4,4.3,78,0.00,,,0.00,WUHU216HW,2013-01-06 12:54:00,
2013-01-06 06:59:00,36.9,30.3,30.25,NNE,23,0.7,2.2,77,0.00,,,0.00,WUHU216HW,2013-01-06 12:59:00,
2013-01-06 07:04:00,36.9,30.3,30.25,NNE,23,0.0,3.4,77,0.00,,,0.00,WUHU216HW,2013-01-06 13:04:00,
2013-01-06 07:09:00,36.9,30.3,30.26,NE,45,0.4,3.4,77,0.00,,,0.00,WUHU216HW,2013-01-06 13:09:00,
2013-01-06 07:14:00,36.9,30.3,30.26,NW,315,1.3,3.1,77,0.00,,,0.00,WUHU216HW,2013-01-06 13:14:00,
2013-01-06 07:19:00,36.9,30.1,30.26,NNE,23,0.0,2.7,76,0.00,,,0.00,WUHU216HW,2013-01-06 13:19:00,
2013-01-06 07:24:00,36.9,30.1,30.26,WNW,293,0.2,2.5,76,0.00,,,0.00,WUHU216HW,2013-01-06 13:24:00,
2013-01-06 07:29:00,36.9,30.1,30.26,NW,315,1.6,2.5,76,0.00,,,0.00,WUHU216HW,2013-01-06 13:29:00,
2013-01-06 07:34:00,36.9,30.1,30.27,NNE,23,0.4,2.5,76,0.00,,,0.00,WUHU216HW,2013-01-06 13:34:00,
2013-01-06 07:39:00,36.9,30.1,30.27,NNW,338,0.2,1.8,76,0.00,,,0.00,WUHU216HW,2013-01-06 13:39:00,
2013-01-06 07:44:00,36.7,29.9,30.27,ENE,68,0.2,1.8,76,0.00,,,0.00,WUHU216HW,2013-01-06 13:44:00,
2013-01-06 07:49:00,36.7,29.9,30.27,NNE,23,2.0,2.0,76,0.00,,,0.00,WUHU216HW,2013-01-06 13:49:00,
2013-01-06 07:54:00,36.7,29.9,30.27,NE,45,0.4,2.0,76,0.00,,,0.00,WUHU216HW,2013-01-06 13:54:00,
2013-01-06 07:59:00,36.7,29.9,30.27,North,0,2.5,2.5,76,0.00,,,0.00,WUHU216HW,2013-01-06 13:59:00,
2013-01-06 08:04:00,36.7,29.9,30.27,ENE,68,0.4,2.9,76,0.00,,,0.00,WUHU216HW,2013-01-06 14:04:00,
2013-01-06 08:09:00,36.9,30.1,30.28,NE,45,0.2,2.9,76,0.00,,,0.00,WUHU216HW,2013-01-06 14:09:00,
2013-01-06 08:14:00,36.9,30.1,30.28,NNE,23,1.6,2.2,76,0.00,,,0.00,WUHU216HW,2013-01-06 14:14:00,
2013-01-06 08:19:00,37.1,30.5,30.28,East,90,0.0,2.7,77,0.00,,,0.00,WUHU216HW,2013-01-06 14:19:00,
2013-01-06 08:24:00,37.3,30.7,30.28,WNW,293,2.5,2.9,77,0.00,,,0.00,WUHU216HW,2013-01-06 14:24:00,
2013-01-06 08:29:00,37.4,30.6,30.28,NNE,23,2.5,3.4,76,0.00,,,0.00,WUHU216HW,2013-01-06 14:29:00,
2013-01-06 08:34:00,37.8,30.9,30.28,NNE,23,3.6,3.6,76,0.00,,,0.00,WUHU216HW,2013-01-06 14:34:00,
2013-01-06 08:39:00,37.8,30.9,30.29,NNE,23,0.9,3.6,76,0.00,,,0.00,WUHU216HW,2013-01-06 14:39:00,
2013-01-06 08:44:00,38.2,31.2,30.29,North,0,0.7,3.4,76,0.00,,,0.00,WUHU216HW,2013-01-06 14:44:00,
2013-01-06 08:49:00,38.5,31.2,30.29,NNW,338,2.0,3.4,75,0.00,,,0.00,WUHU216HW,2013-01-06 14:49:00,
2013-01-06 08:54:00,38.7,31.4,30.29,ENE,68,1.6,3.8,75,0.00,,,0.00,WUHU216HW,2013-01-06 14:54:00,
2013-01-06 08:59:00,38.9,31.6,30.29,NW,315,3.6,3.8,75,0.00,,,0.00,WUHU216HW,2013-01-06 14:59:00,
2013-01-06 09:04:00,38.9,31.2,30.30,West,270,2.0,4.5,74,0.00,,,0.00,WUHU216HW,2013-01-06 15:04:00,
2013-01-06 09:09:00,39.1,31.4,30.30,NNW,338,3.1,6.3,74,0.00,,,0.00,WUHU216HW,2013-01-06 15:09:00,
2013-01-06 09:14:00,39.2,31.2,30.30,NNE,23,1.1,6.3,73,0.00,,,0.00,WUHU216HW,2013-01-06 15:14:00,
2013-01-06 09:19:00,39.4,31.4,30.30,North,0,1.1,4.9,73,0.00,,,0.00,WUHU216HW,2013-01-06 15:19:00,
2013-01-06 09:24:00,39.6,31.6,30.30,NW,315,0.4,4.9,73,0.00,,,0.00,WUHU216HW,2013-01-06 15:24:00,
2013-01-06 09:29:00,39.8,31.4,30.30,NE,45,1.1,4.7,72,0.00,,,0.00,WUHU216HW,2013-01-06 15:29:00,
2013-01-06 09:34:00,40.0,31.6,30.30,ENE,68,1.8,5.4,72,0.00,,,0.00,WUHU216HW,2013-01-06 15:34:00,
2013-01-06 09:39:00,40.1,31.5,30.30,NE,45,2.7,5.4,71,0.00,,,0.00,WUHU216HW,2013-01-06 15:39:00,
2013-01-06 09:44:00,40.3,31.7,30.30,NW,315,2.5,4.5,71,0.00,,,0.00,WUHU216HW,2013-01-06 15:44:00,
2013-01-06 09:49:00,40.5,31.9,30.30,NNW,338,1.3,4.5,71,0.00,,,0.00,WUHU216HW,2013-01-06 15:49:00,
2013-01-06 09:54:00,40.7,32.1,30.31,NW,315,1.8,3.4,71,0.00,,,0.00,WUHU216HW,2013-01-06 15:54:00,
2013-01-06 09:59:00,40.9,31.9,30.31,NW,315,1.8,3.4,70,0.00,,,0.00,WUHU216HW,2013-01-06 15:59:00,
2013-01-06 10:04:00,41.0,32.0,30.31,NE,45,1.6,4.5,70,0.00,,,0.00,WUHU216HW,2013-01-06 16:04:00,
2013-01-06 10:09:00,41.2,31.9,30.31,NE,45,1.1,5.1,69,0.00,,,0.00,WUHU216HW,2013-01-06 16:09:00,
2013-01-06 10:14:00,41.6,32.2,30.31,NW,315,1.1,5.1,69,0.00,,,0.00,WUHU216HW,2013-01-06 16:14:00,
2013-01-06 10:19:00,41.8,32.0,30.31,NNW,338,1.8,3.8,68,0.00,,,0.00,WUHU216HW,2013-01-06 16:19:00,
2013-01-06 10:24:00,42.1,32.8,30.31,NNE,23,1.1,4.9,69,0.00,,,0.00,WUHU216HW,2013-01-06 16:24:00,
2013-01-06 10:29:00,42.3,32.5,30.31,NNE,23,3.6,4.9,68,0.00,,,0.00,WUHU216HW,2013-01-06 16:29:00,
2013-01-06 10:34:00,42.7,32.9,30.31,West,270,4.7,4.7,68,0.00,,,0.00,WUHU216HW,2013-01-06 16:34:00,
2013-01-06 10:39:00,43.0,33.2,30.31,NW,315,2.2,4.7,68,0.00,,,0.00,WUHU216HW,2013-01-06 16:39:00,
2013-01-06 10:44:00,43.6,33.8,30.31,North,0,4.7,4.7,68,0.00,,,0.00,WUHU216HW,2013-01-06 16:44:00,
2013-01-06 10:49:00,44.1,33.9,30.31,NE,45,1.3,4.7,67,0.00,,,0.00,WUHU216HW,2013-01-06 16:49:00,
2013-01-06 10:54:00,44.8,34.1,30.31,NNE,23,0.9,4.7,66,0.00,,,0.00,WUHU216HW,2013-01-06 16:54:00,
2013-01-06 10:59:00,45.4,34.3,30.31,North,0,3.4,4.9,65,0.00,,,0.00,WUHU216HW,2013-01-06 16:59:00,
2013-01-06 11:04:00,45.7,34.2,30.31,ENE,68,4.5,4.9,64,0.00,,,0.00,WUHU216HW,2013-01-06 17:04:00,
2013-01-06 11:09:00,46.3,34.8,30.31,ESE,113,2.5,4.7,64,0.00,,,0.00,WUHU216HW,2013-01-06 17:09:00,
2013-01-06 11:14:00,46.8,34.8,30.31,North,0,1.3,4.7,63,0.00,,,0.00,WUHU216HW,2013-01-06 17:14:00,
2013-01-06 11:19:00,47.2,35.2,30.30,NNE,23,2.2,4.0,63,0.00,,,0.00,WUHU216HW,2013-01-06 17:19:00,
2013-01-06 11:24:00,47.7,35.4,30.31,NNW,338,2.5,4.7,62,0.00,,,0.00,WUHU216HW,2013-01-06 17:24:00,
2013-01-06 11:29:00,48.2,35.8,30.30,NNE,23,1.1,4.7,62,0.00,,,0.00,WUHU216HW,2013-01-06 17:29:00,
2013-01-06 11:34:00,48.6,35.8,30.30,NE,45,1.6,2.5,61,0.00,,,0.00,WUHU216HW,2013-01-06 17:34:00,
2013-01-06 11:39:00,49.1,36.3,30.30,NW,315,0.4,2.5,61,0.00,,,0.00,WUHU216HW,2013-01-06 17:39:00,
2013-01-06 11:44:00,49.5,36.3,30.30,ENE,68,2.5,4.0,60,0.00,,,0.00,WUHU216HW,2013-01-06 17:44:00,
2013-01-06 11:49:00,49.9,36.1,30.30,SSE,158,0.9,4.7,59,0.00,,,0.00,WUHU216HW,2013-01-06 17:49:00,
2013-01-06 11:54:00,50.2,36.5,30.30,NW,315,3.4,4.7,59,0.00,,,0.00,WUHU216HW,2013-01-06 17:54:00,
2013-01-06 11:59:00,50.6,36.3,30.29,North,0,1.3,4.0,58,0.00,,,0.00,WUHU216HW,2013-01-06 17:59:00,
2013-01-06 12:04:00,50.9,36.2,30.29,NE,45,3.4,4.3,57,0.00,,,0.00,WUHU216HW,2013-01-06 18:04:00,
2013-01-06 12:09:00,51.3,36.1,30.29,NNW,338,0.9,4.3,56,0.00,,,0.00,WUHU216HW,2013-01-06 18:09:00,
2013-01-06 12:14:00,51.5,36.2,30.28,NNE,23,1.8,4.0,56,0.00,,,0.00,WUHU216HW,2013-01-06 18:14:00,
2013-01-06 12:19:00,52.0,35.8,30.28,WNW,293,3.4,4.0,54,0.00,,,0.00,WUHU216HW,2013-01-06 18:19:00,
2013-01-06 12:24:00,52.4,35.7,30.28,NNE,23,1.3,5.8,53,0.00,,,0.00,WUHU216HW,2013-01-06 18:24:00,
2013-01-06 12:29:00,52.6,35.8,30.27,NNE,23,1.3,5.8,53,0.00,,,0.00,WUHU216HW,2013-01-06 18:29:00,
2013-01-06 12:34:00,52.9,35.7,30.27,ENE,68,3.6,3.6,52,0.00,,,0.00,WUHU216HW,2013-01-06 18:34:00,
2013-01-06 12:39:00,53.1,36.4,30.27,WNW,293,2.2,3.6,53,0.00,,,0.00,WUHU216HW,2013-01-06 18:39:00,
2013-01-06 12:44:00,53.3,36.1,30.27,NNW,338,3.1,3.6,52,0.00,,,0.00,WUHU216HW,2013-01-06 18:44:00,
2013-01-06 12:49:00,53.3,36.1,30.26,North,0,0.9,3.6,52,0.00,,,0.00,WUHU216HW,2013-01-06 18:49:00,
2013-01-06 12:54:00,53.6,35.9,30.26,SSE,158,1.1,2.9,51,0.00,,,0.00,WUHU216HW,2013-01-06 18:54:00,
2013-01-06 12:59:00,53.8,36.1,30.26,NNE,23,2.5,2.5,51,0.00,,,0.00,WUHU216HW,2013-01-06 18:59:00,
2013-01-06 13:04:00,53.8,36.1,30.25,NNW,338,0.7,3.6,51,0.00,,,0.00,WUHU216HW,2013-01-06 19:04:00,
2013-01-06 13:09:00,54.0,35.8,30.25,NW,315,1.8,3.6,50,0.00,,,0.00,WUHU216HW,2013-01-06 19:09:00,
2013-01-06 13:14:00,54.4,36.1,30.25,East,90,1.3,3.4,50,0.00,,,0.00,WUHU216HW,2013-01-06 19:14:00,
2013-01-06 13:19:00,54.5,36.3,30.25,NNW,338,0.2,3.4,50,0.00,,,0.00,WUHU216HW,2013-01-06 19:19:00,
2013-01-06 13:23:00,54.7,36.5,30.25,NNE,23,2.5,3.6,50,0.00,,,0.00,WUHU216HW,2013-01-06 19:23:00,
2013-01-06 13:28:00,54.7,35.9,30.25,NE,45,0.7,4.0,49,0.00,,,0.00,WUHU216HW,2013-01-06 19:28:00,
2013-01-06 13:33:00,54.7,35.9,30.25,North,0,0.9,4.0,49,0.00,,,0.00,WUHU216HW,2013-01-06 19:33:00,
2013-01-06 13:38:00,54.9,35.5,30.24,ENE,68,1.8,3.8,48,0.00,,,0.00,WUHU216HW,2013-01-06 19:38:00,
2013-01-06 13:48:00,55.1,35.6,30.24,NNW,338,1.6,4.9,48,0.00,,,0.00,WUHU216HW,2013-01-06 19:48:00,
2013-01-06 13:53:00,55.3,35.3,30.24,NNE,23,4.5,5.6,47,0.00,,,0.00,WUHU216HW,2013-01-06 19:53:00,
2013-01-06 13:59:00,55.4,35.4,30.24,NNE,23,3.1,5.6,47,0.00,,,0.00,WUHU216HW,2013-01-06 19:59:00,
2013-01-06 14:04:00,55.4,34.8,30.24,WSW,248,0.4,4.3,46,0.00,,,0.00,WUHU216HW,2013-01-06 20:04:00,
2013-01-06 14:09:00,55.6,35.0,30.24,NE,45,2.5,4.3,46,0.00,,,0.00,WUHU216HW,2013-01-06 20:09:00,
2013-01-06 14:11:00,55.8,35.2,30.24,ENE,68,1.3,3.4,46,0.00,,,0.00,WUHU216HW,2013-01-06 20:11:00,
2013-01-06 14:13:00,55.8,35.2,30.24,NW,315,0.4,3.4,46,0.00,,,0.00,WUHU216HW,2013-01-06 20:13:00,
2013-01-06 14:18:00,55.8,35.2,30.24,North,0,1.1,3.4,46,0.00,,,0.00,WUHU216HW,2013-01-06 20:18:00,
2013-01-06 14:23:00,55.8,34.7,30.23,NNE,23,0.7,3.4,45,0.00,,,0.00,WUHU216HW,2013-01-06 20:23:00,
2013-01-06 14:28:00,55.8,34.7,30.24,NE,45,0.4,3.4,45,0.00,,,0.00,WUHU216HW,2013-01-06 20:28:00,
2013-01-06 14:33:00,55.8,34.7,30.24,West,270,0.0,2.5,45,0.00,,,0.00,WUHU216HW,2013-01-06 20:33:00,
2013-01-06 14:38:00,56.0,34.8,30.24,NE,45,1.1,2.5,45,0.00,,,0.00,WUHU216HW,2013-01-06 20:38:00,
2013-01-06 14:43:00,56.2,35.0,30.24,North,0,2.5,4.0,45,0.00,,,0.00,WUHU216HW,2013-01-06 20:43:00,
2013-01-06 14:48:00,56.2,34.4,30.23,North,0,0.7,4.0,44,0.00,,,0.00,WUHU216HW,2013-01-06 20:48:00,
2013-01-06 14:53:00,56.2,34.4,30.23,SE,135,1.1,4.0,44,0.00,,,0.00,WUHU216HW,2013-01-06 20:53:00,
2013-01-06 14:58:00,56.2,34.4,30.23,North,0,0.7,4.0,44,0.00,,,0.00,WUHU216HW,2013-01-06 20:58:00,
2013-01-06 15:00:00,56.2,34.4,30.23,NNW,338,1.8,4.5,44,0.00,,,0.00,WUHU216HW,2013-01-06 21:00:00,
2013-01-06 15:05:00,56.3,34.6,30.23,North,0,1.1,4.5,44,0.00,,,0.00,WUHU216HW,2013-01-06 21:05:00,
2013-01-06 15:10:00,56.3,34.6,30.23,NE,45,1.6,3.6,44,0.00,,,0.00,WUHU216HW,2013-01-06 21:10:00,
2013-01-06 15:15:00,56.3,34.6,30.23,NW,315,0.9,3.6,44,0.00,,,0.00,WUHU216HW,2013-01-06 21:15:00,
2013-01-06 15:20:00,56.3,34.0,30.23,NW,315,1.8,2.2,43,0.00,,,0.00,WUHU216HW,2013-01-06 21:20:00,
2013-01-06 15:25:00,56.3,34.0,30.23,NE,45,0.4,4.0,43,0.00,,,0.00,WUHU216HW,2013-01-06 21:25:00,
2013-01-06 15:30:00,56.2,33.8,30.23,North,0,1.1,4.0,43,0.00,,,0.00,WUHU216HW,2013-01-06 21:30:00,
2013-01-06 15:35:00,56.2,33.8,30.23,North,0,0.4,3.4,43,0.00,,,0.00,WUHU216HW,2013-01-06 21:35:00,
2013-01-06 15:40:00,56.2,33.8,30.23,NNW,338,1.3,3.4,43,0.00,,,0.00,WUHU216HW,2013-01-06 21:40:00,
2013-01-06 15:45:00,56.0,33.7,30.23,NNE,23,1.1,4.3,43,0.00,,,0.00,WUHU216HW,2013-01-06 21:45:00,
2013-01-06 15:50:00,56.0,33.7,30.23,North,0,0.0,4.3,43,0.00,,,0.00,WUHU216HW,2013-01-06 21:50:00,
2013-01-06 15:55:00,55.8,33.5,30.23,North,0,1.6,2.2,43,0.00,,,0.00,WUHU216HW,2013-01-06 21:55:00,
2013-01-06 16:00:00,55.8,33.5,30.23,North,0,0.2,2.2,43,0.00,,,0.00,WUHU216HW,2013-01-06 22:00:00,
2013-01-06 16:06:00,55.8,33.5,30.22,North,0,0.4,2.5,43,0.00,,,0.00,WUHU216HW,2013-01-06 22:06:00,
2013-01-06 16:11:00,55.8,33.5,30.22,WSW,248,1.1,2.5,43,0.00,,,0.00,WUHU216HW,2013-01-06 22:11:00,
2013-01-06 16:16:00,55.6,33.3,30.22,NNW,338,1.6,1.8,43,0.00,,,0.00,WUHU216HW,2013-01-06 22:16:00,
2013-01-06 16:21:00,55.6,33.3,30.22,NW,315,0.4,2.5,43,0.00,,,0.00,WUHU216HW,2013-01-06 22:21:00,
2013-01-06 16:26:00,55.6,33.3,30.22,NE,45,0.4,2.5,43,0.00,,,0.00,WUHU216HW,2013-01-06 22:26:00,
2013-01-06 16:31:00,55.4,33.2,30.22,NNW,338,2.9,2.9,43,0.00,,,0.00,WUHU216HW,2013-01-06 22:31:00,
2013-01-06 16:36:00,55.3,33.0,30.22,NNE,23,1.6,2.9,43,0.00,,,0.00,WUHU216HW,2013-01-06 22:36:00,
2013-01-06 16:41:00,55.1,32.9,30.22,NNW,338,0.7,2.9,43,0.00,,,0.00,WUHU216HW,2013-01-06 22:41:00,
2013-01-06 16:46:00,55.1,32.9,30.22,NW,315,2.2,2.5,43,0.00,,,0.00,WUHU216HW,2013-01-06 22:46:00,
2013-01-06 16:51:00,54.9,32.7,30.22,NNE,23,1.6,2.7,43,0.00,,,0.00,WUHU216HW,2013-01-06 22:51:00,
2013-01-06 16:56:00,54.7,32.5,30.22,NNW,338,0.4,2.7,43,0.00,,,0.00,WUHU216HW,2013-01-06 22:56:00,
2013-01-06 17:01:00,54.7,32.5,30.22,North,0,1.8,2.5,43,0.00,,,0.00,WUHU216HW,2013-01-06 23:01:00,
2013-01-06 17:06:00,54.5,33.0,30.22,NNE,23,0.7,1.8,44,0.00,,,0.00,WUHU216HW,2013-01-06 23:06:00,
2013-01-06 17:11:00,54.4,32.8,30.22,North,0,0.0,1.1,44,0.00,,,0.00,WUHU216HW,2013-01-06 23:11:00,
2013-01-06 17:15:00,54.4,32.8,30.22,NNW,338,0.4,1.3,44,0.00,,,0.00,WUHU216HW,2013-01-06 23:15:00,
2013-01-06 17:20:00,54.2,32.6,30.21,NNW,338,1.1,1.3,44,0.00,,,0.00,WUHU216HW,2013-01-06 23:20:00,
2013-01-06 17:25:00,54.0,32.4,30.21,NE,45,0.0,1.8,44,0.00,,,0.00,WUHU216HW,2013-01-06 23:25:00,
2013-01-06 17:30:00,53.6,32.1,30.22,North,0,0.0,1.8,44,0.00,,,0.00,WUHU216HW,2013-01-06 23:30:00,
2013-01-06 17:36:00,53.6,32.7,30.21,NW,315,0.0,1.1,45,0.00,,,0.00,WUHU216HW,2013-01-06 23:36:00,
2013-01-06 17:41:00,53.3,32.3,30.22,NW,315,0.0,1.1,45,0.00,,,0.00,WUHU216HW,2013-01-06 23:41:00,
2013-01-06 17:45:00,52.9,32.1,30.22,NW,315,0.0,0.4,45,0.00,,,0.00,WUHU216HW,2013-01-06 23:45:00,
2013-01-06 17:51:00,52.7,32.4,30.21,NW,315,0.0,0.2,46,0.00,,,0.00,WUHU216HW,2013-01-06 23:51:00,
2013-01-06 17:55:00,52.4,31.5,30.22,NW,315,0.0,0.2,45,0.00,,,0.00,WUHU216HW,2013-01-06 23:55:00,
2013-01-06 18:01:00,52.2,31.4,30.21,NW,315,0.0,0.2,45,0.00,,,0.00,WUHU216HW,2013-01-07 00:01:00,
2013-01-06 18:05:00,51.8,31.1,30.21,NW,315,0.4,0.4,45,0.00,,,0.00,WUHU216HW,2013-01-07 00:05:00,
2013-01-06 18:10:00,51.5,30.7,30.22,NW,315,0.0,0.4,45,0.00,,,0.00,WUHU216HW,2013-01-07 00:10:00,
2013-01-06 18:15:00,51.3,30.6,30.22,NW,315,0.0,0.4,45,0.00,,,0.00,WUHU216HW,2013-01-07 00:15:00,
2013-01-06 18:20:00,50.9,30.8,30.22,NW,315,0.0,0.0,46,0.00,,,0.00,WUHU216HW,2013-01-07 00:20:00,
2013-01-06 18:25:00,50.8,30.6,30.22,NW,315,0.0,0.0,46,0.00,,,0.00,WUHU216HW,2013-01-07 00:25:00,
2013-01-06 18:30:00,50.4,30.3,30.22,NW,315,0.0,0.0,46,0.00,,,0.00,WUHU216HW,2013-01-07 00:30:00,
2013-01-06 18:35:00,50.0,30.5,30.22,NW,315,0.0,0.0,47,0.00,,,0.00,WUHU216HW,2013-01-07 00:35:00,
2013-01-06 18:40:00,49.7,30.3,30.22,NW,315,0.0,0.0,47,0.00,,,0.00,WUHU216HW,2013-01-07 00:40:00,
2013-01-06 18:45:00,49.3,29.9,30.23,NW,315,0.0,0.0,47,0.00,,,0.00,WUHU216HW,2013-01-07 00:45:00,
2013-01-06 18:50:00,49.3,30.4,30.22,NW,315,0.0,0.0,48,0.00,,,0.00,WUHU216HW,2013-01-07 00:50:00,
2013-01-06 18:55:00,49.0,30.1,30.23,NW,315,0.0,0.0,48,0.00,,,0.00,WUHU216HW,2013-01-07 00:55:00,
2013-01-06 19:00:00,48.6,29.7,30.22,NW,315,0.0,0.0,48,0.00,,,0.00,WUHU216HW,2013-01-07 01:00:00,
2013-01-06 19:05:00,48.2,29.9,30.22,NW,315,0.0,0.0,49,0.00,,,0.00,WUHU216HW,2013-01-07 01:05:00,
2013-01-06 19:10:00,48.2,29.9,30.23,NW,315,0.0,0.0,49,0.00,,,0.00,WUHU216HW,2013-01-07 01:10:00,
2013-01-06 19:15:00,48.1,29.7,30.23,NW,315,0.0,0.0,49,0.00,,,0.00,WUHU216HW,2013-01-07 01:15:00,
2013-01-06 19:20:00,47.9,29.5,30.23,NW,315,0.0,0.0,49,0.00,,,0.00,WUHU216HW,2013-01-07 01:20:00,
2013-01-06 19:25:00,47.5,29.8,30.23,NW,315,0.0,0.0,50,0.00,,,0.00,WUHU216HW,2013-01-07 01:25:00,
2013-01-06 19:30:00,47.2,29.4,30.23,NW,315,0.0,0.0,50,0.00,,,0.00,WUHU216HW,2013-01-07 01:30:00,
2013-01-06 19:35:00,47.0,29.7,30.24,NW,315,0.0,0.0,51,0.00,,,0.00,WUHU216HW,2013-01-07 01:35:00,
2013-01-06 19:40:00,46.6,29.4,30.24,NW,315,0.0,0.2,51,0.00,,,0.00,WUHU216HW,2013-01-07 01:40:00,
2013-01-06 19:45:00,46.4,29.7,30.24,NW,315,0.4,0.4,52,0.00,,,0.00,WUHU216HW,2013-01-07 01:45:00,
2013-01-06 19:50:00,46.3,29.5,30.24,NW,315,0.0,0.4,52,0.00,,,0.00,WUHU216HW,2013-01-07 01:50:00,
2013-01-06 19:55:00,46.1,29.3,30.24,NW,315,0.0,0.4,52,0.00,,,0.00,WUHU216HW,2013-01-07 01:55:00,
2013-01-06 20:00:00,45.9,29.7,30.24,NW,315,0.0,0.2,53,0.00,,,0.00,WUHU216HW,2013-01-07 02:00:00,
2013-01-06 20:05:00,45.7,29.5,30.24,NW,315,0.0,0.0,53,0.00,,,0.00,WUHU216HW,2013-01-07 02:05:00,
2013-01-06 20:10:00,45.4,29.2,30.24,NW,315,0.0,0.0,53,0.00,,,0.00,WUHU216HW,2013-01-07 02:10:00,
2013-01-06 20:15:00,45.2,29.4,30.24,NW,315,0.0,0.0,54,0.00,,,0.00,WUHU216HW,2013-01-07 02:15:00,
2013-01-06 20:20:00,45.0,29.4,30.25,NW,315,0.0,0.0,54,0.00,,,0.00,WUHU216HW,2013-01-07 02:20:00,
2013-01-06 20:25:00,44.8,28.7,30.24,NW,315,0.0,0.0,53,0.00,,,0.00,WUHU216HW,2013-01-07 02:25:00,
2013-01-06 20:30:00,44.6,29.0,30.25,NW,315,0.0,0.0,54,0.00,,,0.00,WUHU216HW,2013-01-07 02:30:00,
2013-01-06 20:35:00,44.3,28.6,30.25,NW,315,0.0,0.0,54,0.00,,,0.00,WUHU216HW,2013-01-07 02:35:00,
2013-01-06 20:40:00,44.1,28.9,30.25,NW,315,0.0,0.0,55,0.00,,,0.00,WUHU216HW,2013-01-07 02:40:00,
2013-01-06 20:45:00,43.7,28.6,30.25,NW,315,0.0,0.0,55,0.00,,,0.00,WUHU216HW,2013-01-07 02:45:00,
2013-01-06 20:50:00,43.6,28.5,30.25,NW,315,0.0,0.0,55,0.00,,,0.00,WUHU216HW,2013-01-07 02:50:00,
2013-01-06 20:55:00,43.4,28.7,30.25,NW,315,0.0,0.0,56,0.00,,,0.00,WUHU216HW,2013-01-07 02:55:00,
2013-01-06 21:00:00,43.2,28.5,30.25,NW,315,0.0,0.0,56,0.00,,,0.00,WUHU216HW,2013-01-07 03:00:00,
2013-01-06 21:05:00,43.0,28.4,30.25,NW,315,0.0,0.0,56,0.00,,,0.00,WUHU216HW,2013-01-07 03:05:00,
2013-01-06 21:10:00,42.8,28.6,30.25,NW,315,0.0,0.0,57,0.00,,,0.00,WUHU216HW,2013-01-07 03:10:00,
2013-01-06 21:15:00,42.7,28.5,30.25,NW,315,0.0,0.0,57,0.00,,,0.00,WUHU216HW,2013-01-07 03:15:00,
2013-01-06 21:20:00,42.5,28.3,30.25,NW,315,0.0,0.0,57,0.00,,,0.00,WUHU216HW,2013-01-07 03:20:00,
2013-01-06 21:25:00,42.3,28.5,30.25,NW,315,0.0,0.0,58,0.00,,,0.00,WUHU216HW,2013-01-07 03:25:00,
2013-01-06 21:30:00,42.3,28.5,30.25,NW,315,0.0,0.0,58,0.00,,,0.00,WUHU216HW,2013-01-07 03:30:00,
2013-01-06 21:35:00,42.1,28.4,30.25,NW,315,0.0,0.0,58,0.00,,,0.00,WUHU216HW,2013-01-07 03:35:00,
2013-01-06 21:40:00,41.9,28.6,30.25,NW,315,0.0,0.0,59,0.00,,,0.00,WUHU216HW,2013-01-07 03:40:00,
2013-01-06 21:45:00,41.8,28.4,30.25,NW,315,0.0,0.0,59,0.00,,,0.00,WUHU216HW,2013-01-07 03:45:00,
2013-01-06 21:50:00,41.6,28.3,30.25,NW,315,0.0,0.0,59,0.00,,,0.00,WUHU216HW,2013-01-07 03:50:00,
2013-01-06 21:55:00,41.4,28.6,30.25,NW,315,0.0,0.0,60,0.00,,,0.00,WUHU216HW,2013-01-07 03:55:00,
2013-01-06 22:00:00,41.2,28.5,30.25,NW,315,0.0,0.0,60,0.00,,,0.00,WUHU216HW,2013-01-07 04:00:00,
2013-01-06 22:05:00,41.0,28.3,30.25,NW,315,0.0,0.0,60,0.00,,,0.00,WUHU216HW,2013-01-07 04:05:00,
2013-01-06 22:10:00,40.9,28.1,30.25,NW,315,0.0,0.0,60,0.00,,,0.00,WUHU216HW,2013-01-07 04:10:00,
2013-01-06 22:15:00,40.7,28.3,30.25,NW,315,0.0,0.0,61,0.00,,,0.00,WUHU216HW,2013-01-07 04:15:00,
2013-01-06 22:20:00,40.7,28.3,30.25,NW,315,0.0,0.0,61,0.00,,,0.00,WUHU216HW,2013-01-07 04:20:00,
2013-01-06 22:25:00,40.5,28.4,30.25,NW,315,0.0,0.0,62,0.00,,,0.00,WUHU216HW,2013-01-07 04:25:00,
2013-01-06 22:30:00,40.3,28.3,30.25,NW,315,0.0,0.0,62,0.00,,,0.00,WUHU216HW,2013-01-07 04:30:00,
2013-01-06 22:35:00,40.1,28.1,30.25,NW,315,0.0,0.0,62,0.00,,,0.00,WUHU216HW,2013-01-07 04:35:00,
2013-01-06 22:40:00,40.0,27.9,30.25,NW,315,0.0,0.0,62,0.00,,,0.00,WUHU216HW,2013-01-07 04:40:00,
2013-01-06 22:45:00,40.0,27.9,30.25,NW,315,0.0,0.0,62,0.00,,,0.00,WUHU216HW,2013-01-07 04:45:00,
2013-01-06 22:50:00,39.6,28.0,30.25,NW,315,0.0,0.0,63,0.00,,,0.00,WUHU216HW,2013-01-07 04:50:00,
2013-01-06 22:55:00,39.6,28.0,30.24,NW,315,0.0,0.0,63,0.00,,,0.00,WUHU216HW,2013-01-07 04:55:00,
2013-01-06 23:00:00,39.4,27.8,30.24,NW,315,0.0,0.0,63,0.00,,,0.00,WUHU216HW,2013-01-07 05:00:00,
2013-01-06 23:05:00,39.2,27.6,30.24,NW,315,0.0,0.0,63,0.00,,,0.00,WUHU216HW,2013-01-07 05:05:00,
2013-01-06 23:10:00,39.2,27.6,30.24,NW,315,0.0,0.0,63,0.00,,,0.00,WUHU216HW,2013-01-07 05:10:00,
2013-01-06 23:15:00,39.1,27.5,30.24,NW,315,0.0,0.0,63,0.00,,,0.00,WUHU216HW,2013-01-07 05:15:00,
2013-01-06 23:20:00,39.1,27.5,30.24,NW,315,0.0,0.0,63,0.00,,,0.00,WUHU216HW,2013-01-07 05:20:00,
2013-01-06 23:25:00,38.9,27.3,30.24,NW,315,0.0,0.0,63,0.00,,,0.00,WUHU216HW,2013-01-07 05:25:00,
2013-01-06 23:30:00,38.7,27.1,30.24,NW,315,0.0,0.0,63,0.00,,,0.00,WUHU216HW,2013-01-07 05:30:00,
2013-01-06 23:35:00,38.5,27.4,30.24,NW,315,0.0,0.0,64,0.00,,,0.00,WUHU216HW,2013-01-07 05:35:00,
2013-01-06 23:40:00,38.5,27.4,30.24,NW,315,0.0,0.0,64,0.00,,,0.00,WUHU216HW,2013-01-07 05:40:00,
2013-01-06 23:45:00,38.2,27.0,30.24,NW,315,0.0,0.0,64,0.00,,,0.00,WUHU216HW,2013-01-07 05:45:00,
2013-01-06 23:50:00,38.0,26.8,30.24,NW,315,0.0,0.0,64,0.00,,,0.00,WUHU216HW,2013-01-07 05:50:00,
2013-01-06 23:55:00,38.0,27.2,30.24,NW,315,0.0,0.0,65,0.00,,,0.00,WUHU216HW,2013-01-07 05:55:00,